This is the latest recevied weather packets stored in our database for station/object W9GWP. If no packets are shown the sender has not sent any weather packets the latest 10 day(s).
| Time | Temp. | Humidity | Pressure | Rain* | Wind** | Luminosity | Snow |
|---|---|---|---|---|---|---|---|
| 1777837815 | 16.67° C | 53% | 1037 hPa | 0 mm | - | 566 W/m² | - |
| 1777836914 | 16.67° C | 53% | 1037.4 hPa | 0 mm | - | 653 W/m² | - |
| 1777836014 | 16.67° C | 52% | 1037.3 hPa | 0 mm | - | 526 W/m² | - |
| 1777835110 | 16.67° C | 50% | 1037.4 hPa | 0 mm | - | 676 W/m² | - |
| 1777834209 | 16.11° C | 51% | 1037.5 hPa | 0 mm | - | 673 W/m² | - |
| 1777833304 | 15.56° C | 52% | 1037.4 hPa | 0 mm | - | 105 W/m² | - |
| 1777832403 | 15.56° C | 54% | 1037.7 hPa | 0 mm | - | 690 W/m² | - |
| 1777831500 | 15° C | 54% | 1038.1 hPa | 0 mm | - | 690 W/m² | - |
| 1777830596 | 15° C | 56% | 1038.3 hPa | 0 mm | - | 437 W/m² | - |
| 1777829691 | 14.44° C | 60% | 1038.8 hPa | 0 mm | - | 697 W/m² | - |
| 1777828788 | 13.89° C | 62% | 1039.6 hPa | 0 mm | - | 358 W/m² | - |
| 1777827884 | 12.78° C | 67% | 1040 hPa | 0 mm | - | 398 W/m² | - |
| 1777826981 | 12.78° C | 67% | 1040.4 hPa | 0 mm | - | 428 W/m² | - |
| 1777826078 | 11.11° C | 72% | 1040.1 hPa | 0 mm | - | 317 W/m² | - |
| 1777825175 | 10.56° C | 78% | 1040.8 hPa | 0 mm | - | 302 W/m² | - |
| 1777824271 | 10.56° C | 77% | 1041.2 hPa | 0 mm | - | 102 W/m² | - |
| 1777823366 | 11.67° C | 67% | 1041.5 hPa | 0 mm | - | 231 W/m² | - |
| 1777822466 | 12.78° C | 63% | 1041.3 hPa | 0 mm | - | 174 W/m² | - |
| 1777821563 | 13.89° C | 58% | 1041.1 hPa | 0 mm | - | 373 W/m² | - |
| 1777820660 | 12.78° C | 60% | 1041.2 hPa | 0 mm | - | 207 W/m² | - |
| 1777819757 | 12.78° C | 61% | 1041.2 hPa | 0 mm | - | 511 W/m² | - |
| 1777818855 | 12.22° C | 62% | 1041.3 hPa | 0 mm | - | 365 W/m² | - |
| 1777817951 | 11.67° C | 62% | 1041.5 hPa | 0 mm | - | 379 W/m² | - |
| 1777817048 | 11.67° C | 60% | 1041.8 hPa | 0 mm | - | 262 W/m² | - |
| 1777816145 | 11.11° C | 61% | 1041.8 hPa | 0 mm | - | 176 W/m² | - |
* Rain latest hour (hover to see other rain measurements)
** Current wind speed in m/s (hover to see current wind gust speed)